Location: Blanot
(47.1713°N, 4.2340°E)
Time: 20:51:02
(UTC+00:00)

Cosmos 1271 Rocket - Pass Details

Date: 14 July 2020
Orbit: 498 x 546 km, 81.2° (Epoch: 14 August)

Event Time Altitude Azimuth Distance (km) Brightness Sun altitude
Rises 02:40:50 0° 353° (N) 2,631 7.0 -11.1°
Reaches altitude 10° 02:43:02 10° 360° (N) 1,733 6.1 -10.8°
Maximum altitude 02:46:43 47° 75° (ENE) 672 3.7 -10.4°
Drops below altitude 10° 02:50:20 10° 151° (SSE) 1,701 5.1 -10.0°
Sets 02:52:29 0° 157° (SSE) 2,577 6.0 -9.8°
